Location: Bridgewater Hill Observatory
(43.5992°N, 72.6989°W)
Time: 05:29:12
(UTC-05:00)

Daily predictions for brighter satellites

Satellite Brightness Start Highest point End
(mag) Time Altitude Azimuth Time Altitude Azimuth Time Altitude Azimuth
Cosmos 2237 Rocket 4.4 02:56:50 21° E 02:56:50 21° E 02:59:44 10° NE
Cosmos 2333 Rocket 4.5 02:58:53 19° NE 02:58:53 19° NE 03:00:42 10° NE
Cosmos 2219 Rocket 4.1 03:25:09 22° NNE 03:25:09 22° NNE 03:27:02 10° NNE
CZ-4B R/B 4.1 03:44:05 10° NNE 03:49:35 48° E 03:55:01 10° S
DELTA 2 R/B (1) 4.4 03:54:25 45° SE 03:54:25 45° SE 03:58:49 10° E
PAYLOAD B 4.5 03:52:52 10° NNE 03:58:26 66° ESE 03:59:15 58° SSE
Cosmos 2278 Rocket 2.8 04:02:21 47° SSE 04:02:21 47° SSE 04:06:16 10° SSE
Cosmos 2173 Rocket 3.9 04:02:09 76° N 04:02:44 88° E 04:09:04 10° S
ISS -0.7 04:09:27 13° SE 04:09:27 13° SE 04:09:50 10° SE
Gbstr 26 Del rocket 4.1 04:16:05 39° NE 04:16:05 39° NE 04:18:45 10° NE
Cosmos 1459 Rocket 3.8 04:18:05 67° SW 04:18:05 67° SW 04:23:36 10° S
In-Cosmos 22 Rocket 4.4 04:14:26 10° S 04:20:05 71° E 04:25:52 10° NNE
Cosmos 2100 Rocket 4.0 04:22:59 58° WSW 04:22:59 58° WSW 04:28:35 10° S
Atlas Centaur 2 4.1 04:25:37 25° SW 04:28:44 32° S 04:36:02 10° ESE
CZ-4B DEB 4.1 04:23:41 10° N 04:29:15 73° WNW 04:31:09 42° SW
Meteor 1-28 Rocket 4.0 04:25:51 10° SSE 04:28:44 48° SE 04:28:44 48° SE
NOSS 0 Rocket 3.9 04:30:16 57° WNW 04:30:29 57° WNW 04:36:37 10° NNE
Cosmos 1802 Rocket 3.8 04:28:36 25° NNW 04:32:18 65° W 04:38:27 10° S
Landsat 4 3.9 04:34:15 10° SSE 04:37:28 63° SE 04:37:28 63° SE
IRS-1C Rocket 3.9 04:33:03 10° NNE 04:38:20 77° WNW 04:43:34 10° SSW
Cosmos 2237 Rocket 2.2 04:38:45 54° WNW 04:38:59 55° WNW 04:44:36 10° NNE
Lacrosse 5 rocket 3.7 04:35:14 10° S 04:39:02 26° SE 04:42:55 10° ENE
Cosmos 2333 Rocket 3.0 04:40:56 33° NNW 04:40:56 33° NNW 04:45:04 10° NNE
COSMOS 2428 4.4 04:42:48 17° NNW 04:42:48 17° NNW 04:44:50 10° N
USA 267 4.4 04:36:21 10° ENE 04:41:55 31° NNE 04:45:14 20° NNW
Meteor 2-3 Rocket 4.4 04:36:25 10° S 04:42:03 57° E 04:47:39 10° NNE
SJ-6F 4.3 04:39:55 10° N 04:44:03 84° WNW 04:48:11 10° SSW
Okean-O 3.3 04:45:21 10° NNE 04:49:44 55° E 04:54:04 10° S
CZ-2C R/B 3.5 04:45:34 10° S 04:50:03 66° WSW 04:51:15 45° NW
SKYMED 2 4.0 04:45:47 10° SSE 04:50:04 61° ENE 04:54:21 10° N
SL-08 R/B 4.5 04:45:16 10° NNW 04:51:38 66° W 04:57:57 10° S
IDEFIX/ARIANE 42P 3.8 04:47:05 10° NNE 04:52:01 42° E 04:56:54 10° S
Cosmos 1470 Rocket 3.4 04:47:36 10° S 04:52:04 85° W 04:56:34 10° N
Cosmos 1302 Rocket 4.0 04:54:36 35° WSW 04:56:29 53° WNW 05:01:37 10° NNE
Cosmos 1503 Rocket 3.9 04:53:41 17° NNW 04:57:41 87° ENE 05:02:50 10° SSE
Cosmos 2123 Rocket 3.9 04:55:08 10° SSW 05:01:18 66° W 05:07:33 10° N
Cosmos 2061 Rocket 4.4 04:55:35 10° NNW 05:01:27 38° W 05:07:17 10° SSW
Cosmos 1725 Rocket 3.9 04:55:44 10° NNW 05:01:51 64° W 05:07:55 10° S
Cosmos 1782 4.2 05:01:54 10° N 05:05:39 38° ENE 05:09:21 10° SSE
Cosmos 2219 Rocket 3.6 05:06:55 20° NW 05:06:55 20° NW 05:10:07 10° N
Cosmos 1825 3.8 05:04:13 10° SSE 05:07:42 37° E 05:11:12 10° NNE
Cosmos 1980 4.4 05:10:42 29° WNW 05:11:26 30° NW 05:16:23 10° N
Meteor 1-26 Rocket 4.1 05:06:15 10° NNW 05:11:44 63° W 05:17:15 10° S
SL-16 R/B 2.1 05:06:48 10° SSW 05:12:26 69° WNW 05:18:07 10° NNE
USA 229 DEB 3.8 05:09:47 17° NW 05:15:37 77° WSW 05:22:57 10° SSE
USA 229 3.8 05:09:52 17° NW 05:15:43 78° WSW 05:23:02 10° SSE
Okean O Rocket 3.8 05:13:21 10° NNW 05:13:41 11° NNW 05:13:41 11° NNW
PAYLOAD A 4.2 05:11:37 10° NNE 05:16:49 77° ESE 05:22:09 10° S
Cosmos 1703 Rocket 3.9 05:13:39 10° N 05:18:03 67° E 05:22:22 10° SSE
Cosmos 1606 3.3 05:16:23 10° N 05:20:08 58° E 05:23:54 10° SSE
Abrixas rocket 2.9 05:22:26 33° NW 05:23:07 37° N 05:26:09 10° ENE
Cosmos 968 Rocket 4.0 05:19:02 10° NNW 05:24:17 63° ENE 05:29:30 10° SSE
Cosmos 1869 Rocket 4.4 05:20:19 10° S 05:24:33 54° E 05:28:51 10° NNE
Cosmos 1447 Rocket 4.4 05:19:21 10° SSW 05:25:42 77° W 05:32:02 10° N
MSX 4.5 05:23:39 10° NNE 05:29:23 60° E 05:35:03 10° S
CZ-4B R/B 4.1 05:25:10 10° N 05:29:49 27° WNW 05:34:29 10° WSW
Cosmos 1354 Rocket 4.3 05:28:40 12° NNW 05:33:21 46° WSW 05:38:18 10° S
Cosmos 2297 4.3 05:30:16 16° NW 05:34:21 37° WSW 05:39:31 10° S
USA 32 4.1 05:30:30 10° SSW 05:35:34 52° W 05:40:41 10° N
Cosmos 1933 Rocket 4.2 05:32:47 10° SW 05:36:42 32° WNW 05:40:40 10° N
CZ-2C R/B 2.6 05:31:59 10° NNE 05:37:13 84° ESE 05:42:20 10° SSW
COSMO-SKYMED 1 3.0 05:34:06 10° SSW 05:38:10 40° W 05:42:17 10° NNW
Cosmos 1892 3.8 05:35:52 10° SW 05:38:56 23° WNW 05:42:02 10° NNW
DELTA 2 R/B (1) 4.0 05:35:12 16° W 05:39:32 56° S 05:44:59 10° ESE
Cosmos 2369 Rocket 3.0 05:35:01 10° NNW 05:40:28 50° ENE 05:45:52 10° SE
CZ-4 R/B 3.9 05:39:05 10° NE 05:42:18 24° E 05:45:34 10° SSE
ISS -1.5 05:42:08 11° WSW 05:42:35 11° SW 05:43:42 10° SSW
Cosmos 2278 Rocket 4.0 05:44:17 12° WSW 05:44:17 12° WSW 05:45:47 10° WSW
Cosmos 405 Rocket 3.1 05:40:40 10° N 05:44:21 62° ENE 05:48:02 10° SSE
SJ-12 4.0 05:46:27 10° NNE 05:50:36 86° ESE 05:54:42 10° SSW
USA 215 3.5 05:45:42 10° NE 05:52:16 76° SE 05:58:48 10° SW
Cosmos 1464 Rocket 4.0 05:49:15 10° N 05:55:32 88° W 06:01:51 10° S
CZ-3B R/B 2.3 05:53:54 10° SW 05:56:16 59° SE 05:57:55 10° ENE
Meteor 2-6 Rocket 4.3 05:51:20 10° NNW 05:57:09 74° W 06:03:03 10° S
Gbstr 26 Del rocket 4.1 05:58:39 12° WNW 06:01:59 27° N 06:05:21 10° NE
SMAP 3.5 06:06:06 10° NNE 06:10:46 69° ESE 06:15:24 10° S
Cosmos 2084 Rocket 4.1 06:08:28 10° NW 06:11:56 32° WSW 06:15:24 10° S
Cosmos 1408 3.4 06:08:43 10° SW 06:12:01 29° WNW 06:15:21 10° NNW
Meteor 1-27 Rocket 3.8 06:07:57 10° NNW 06:13:53 84° W 06:19:39 10° S
Intercosmos 25 4.1 06:12:05 10° NW 06:14:50 26° W 06:18:03 10° SSW
Lacrosse 5 rocket 1.8 06:13:28 10° WSW 06:18:03 57° NW 06:22:40 10° NE
